SCP
-0 0 0 0 0 0 0 0 -0 0 0 0 0 0 0 0 0 -0 0 0 0 0 0 0 0 0 0 0 0 0 0 0 0 0 0 0 0 0 0 -0 -0 0 -0
0 0 0 0 0 0 0 0 0 0 0 0 0 0 0 0 0 0 0 0 0 0 0 0 0 0 0 0 0 0 0 0 0 0 0 0 0 0 0 0 0 0 0
0 0 0 -0 -0 0 0 0 0 0 0 0 0 0 0 0 0 0 0 0 0 0 0 0 0 0 0 0 0 0 0 0 0 0 0 0 0 0 0 0 0 0 0
0 0 0 0 0 0 0 0 0 0 0 0 0 0 0 0 0 0 0 0 0 0 0 0 0 0 0 0 0 0 0 0 0 0 0 0 0 0 0 0 0 0 0
0 0 0 0 0 0 0 0 0 0 0 0 0 0 0 0 0 0 0 0 0 0 0 0 0 0 0 0 0 0 0 0 0 0 0 0 0 0 0 0 0 0 0
0 0 0 0 -0 0 1 0 0 0 0 0 0 0 0 0 0 0 0 0 0 0 0 0 0 0 0 0 0 0 0 0 0 0 0 0 0 -0 0 0 0 0 0
1 0 0 0 0 -0 0 0 0 0 0 0 0 0 0 0 0 0 0 0 0 0 0 0 0 0 0 0 0 0 0 0 0 0 0 0 0 0 0 0 0 0 0
1 0 0 0 -0 -0 0 0 0 0 0 0 0 0 0 0 0 0 0 0 0 0 0 0 0 0 0 0 0 0 0 0 0 0 0 0 0 0 0 0 0 0 0
1 1 0 0 0 0 0 0 0 0 0 0 0 0 0 0 0 0 0 0 0 0 0 0 0 0 0 0 0 0 0 0 0 0 0 0 0 0 0 0 0 0 0
1 1 1 0 0 0 0 1 0 0 0 0 0 0 0 0 0 0 0 0 0 0 0 0 0 0 0 0 0 0 0 0 0 0 0 0 0 0 0 0 0 0 0
1 1 1 1 0 0 0 1 1 0 0 0 0 0 0 0 0 0 0 0 0 0 0 0 0 0 0 0 0 0 0 0 0 0 0 0 0 0 0 0 0 0 0
1 1 0 1 1 1 1 1 1 1 1 0 0 0 0 0 0 0 0 0 0 0 0 0 0 0 0 0 0 0 0 0 0 0 0 0 0 0 0 0 0 0 0
2 1 1 1 1 1 1 2 1 1 1 1 0 0 0 0 0 0 0 0 0 0 0 0 0 0 0 0 0 0 0 0 0 0 0 0 0 0 0 0 0 0 0
2 1 1 1 1 1 1 2 3 2 1 1 0 0 0 0 0 0 0 0 0 0 0 0 0 0 0 0 0 0 0 0 0 0 0 0 0 0 0 0 0 -0 0
1 1 1 1 2 2 2 2 2 1 1 1 1 0 0 0 0 0 0 0 0 0 0 0 0 0 0 0 0 0 0 0 0 0 0 0 0 0 0 0 -0 -0 0
0 1 2 2 3 3 3 2 2 2 1 1 1 0 0 0 0 0 0 0 0 0 0 0 0 0 0 0 0 0 0 0 0 0 0 0 0 0 0 -0 -0 0 0
0 1 1 2 3 3 2 2 1 1 1 1 1 1 0 1 0 0 0 0 0 0 0 0 0 0 0 0 0 0 0 0 0 0 0 0 0 0 0 -0 -0 0 0
0 0 1 0 1 2 1 2 1 1 1 0 0 0 0 0 0 0 0 0 0 0 0 0 0 0 0 0 0 0 0 0 0 0 0 0 0 0 0 -0 -0 0 0
0 0 0 1 1 1 1 1 1 1 0 0 0 0 0 0 0 0 0 0 0 0 0 0 0 0 0 0 0 0 0 0 0 0 0 0 0 0 0 -0 -0 0 0
0 1 0 1 1 1 1 1 1 1 0 0 0 0 0 0 0 0 0 0 0 0 0 0 0 0 0 0 0 0 0 0 0 0 0 0 0 0 0 -0 -0 0 0
0 0 0 1 1 1 1 0 0 0 0 0 0 0 0 0 0 0 0 0 0 0 0 0 0 0 0 0 0 0 0 0 0 0 0 0 0 0 0 0 0 0 0
0 0 0 0 0 0 1 0 0 0 0 0 0 0 0 0 0 0 0 0 0 0 0 0 0 0 0 0 0 0 0 0 0 0 0 0 0 0 0 0 0 0 0
0 0 0 0 0 0 0 0 0 0 0 0 0 0 0 0 0 0 0 0 0 0 0 0 0 0 0 0 0 0 0 0 0 0 0 0 0 0 0 0 0 0 0
0 0 0 0 0 0 0 0 0 0 0 0 0 0 0 0 0 0 0 0 0 0 0 0 0 0 0 0 0 0 0 0 0 0 0 0 0 0 0 0 0 0 0
0 0 0 0 0 0 0 0 0 0 -0 -0 0 0 0 0 0 0 0 0 0 0 0 0 0 0 0 0 0 0 0 0 0 0 0 0 0 0 0 0 0 0 0
0 0 0 0 0 0 0 0 0 0 0 0 0 0 0 0 0 0 0 0 0 0 0 0 0 0 0 0 0 0 0 0 0 0 0 0 0 0 0 0 0 0 0
Wind_Speed_500mb
25 27 25 17 7 7 2 12 9 5 12 7 3 5 11 19 20 14 15 19 28 32 21 13 7 6 7 11 13 14 15 17 19 22 21 21 21 22 23 26 26 26 25
35 32 26 21 13 5 11 17 16 13 13 5 3 8 11 12 10 20 20 20 25 30 24 19 12 9 8 10 9 9 11 12 13 15 17 19 21 22 23 24 25 25 25
31 35 29 33 34 20 19 20 20 17 4 11 7 7 4 7 17 18 26 19 18 22 25 22 21 15 12 10 7 6 6 9 13 17 18 20 21 22 21 22 24 26 27
27 32 38 32 23 28 26 27 21 15 6 6 8 14 9 14 14 18 15 11 17 22 24 22 21 27 14 9 5 5 9 15 17 18 19 20 20 20 19 19 21 24 28
38 32 39 38 34 29 24 24 18 14 17 17 13 17 21 19 18 19 19 16 22 33 26 19 23 28 14 11 9 10 14 18 21 22 23 24 23 22 22 23 25 28 32
40 36 36 44 45 35 38 26 26 23 20 20 14 8 26 20 23 19 18 21 29 18 18 22 16 21 10 14 15 14 17 21 23 26 27 28 27 25 27 28 31 34 36
45 41 36 41 52 50 50 38 37 34 29 21 22 14 20 17 20 20 23 21 18 21 22 17 14 17 10 9 12 14 19 26 23 32 33 32 29 29 30 32 36 39 42
51 48 40 39 47 44 43 45 39 42 34 30 30 25 20 26 31 26 26 28 16 22 24 22 20 21 21 17 21 17 20 24 26 37 36 35 34 33 34 36 39 43 47
54 59 53 39 49 53 52 47 52 46 38 33 29 26 17 20 21 16 25 25 27 26 29 30 30 33 27 23 23 28 27 24 33 35 38 37 33 33 35 37 41 45 47
58 67 63 54 44 53 53 54 51 47 44 42 38 33 33 26 14 13 24 27 27 33 26 33 34 35 30 28 25 23 23 27 33 38 41 37 31 32 33 38 43 46 50
50 48 61 66 60 59 54 57 51 48 46 51 45 43 40 32 38 42 30 32 28 36 33 29 42 34 29 29 28 24 24 26 33 39 40 32 31 30 31 38 44 49 53
40 45 40 46 58 56 63 62 64 56 53 51 54 49 50 46 42 35 37 35 31 28 32 44 32 41 43 41 30 26 24 26 30 37 36 27 25 26 32 38 47 51 49
38 41 44 42 45 57 62 68 63 60 56 54 56 60 60 52 44 35 33 33 33 31 30 37 35 28 33 34 40 33 29 30 38 36 25 20 21 24 31 40 47 50 44
36 31 43 48 45 41 52 67 69 66 62 58 59 59 57 60 54 49 40 39 35 31 21 27 35 34 40 39 35 34 37 39 39 31 20 15 17 23 32 40 47 48 38
53 48 42 41 44 41 39 51 75 74 67 66 66 65 66 63 58 58 52 43 32 34 36 20 32 41 40 37 37 39 40 39 29 22 15 13 16 23 31 38 47 45 36
47 46 49 41 43 46 45 40 48 57 66 71 70 70 68 69 62 61 60 47 40 35 36 29 17 27 43 36 40 41 37 31 22 18 13 12 16 21 29 38 45 41 36
34 41 41 40 43 46 45 44 51 49 59 65 66 64 62 62 62 58 58 60 45 39 40 40 25 27 34 40 44 41 36 27 21 16 9 10 13 19 26 37 43 38 32
27 26 37 42 41 41 42 41 43 46 54 58 53 47 47 55 59 55 53 50 52 45 46 40 23 29 37 36 38 43 40 31 25 19 10 13 14 18 23 30 44 38 21
25 27 23 34 40 43 30 26 33 42 44 48 46 45 47 41 49 47 50 43 43 45 42 41 34 27 36 40 31 44 37 29 25 20 11 12 19 17 23 27 40 44 26
21 22 20 21 31 39 38 41 41 41 44 41 41 39 38 40 40 46 46 42 49 44 45 43 34 36 37 40 31 35 36 29 20 17 11 15 22 16 21 24 32 40 35
24 22 21 17 17 27 39 39 45 50 46 38 46 42 45 46 50 44 49 49 48 55 48 50 51 47 46 43 42 31 37 28 24 22 19 22 25 21 19 23 26 32 37
37 30 17 20 17 16 22 24 34 42 40 42 45 46 46 34 44 50 51 51 53 51 55 51 52 53 47 44 28 32 37 32 31 32 29 28 26 25 21 22 23 29 30
40 38 30 18 14 15 17 22 21 20 28 43 49 42 40 37 38 46 53 61 62 59 54 58 67 64 49 46 40 40 39 41 39 32 28 29 29 26 24 22 23 29 27
41 40 37 29 20 20 21 22 23 28 29 29 31 39 54 61 61 58 61 63 64 71 68 66 70 73 71 69 55 59 57 66 46 37 33 29 31 33 27 23 24 30 26
35 41 40 34 33 29 32 29 30 37 39 38 40 41 40 46 58 61 61 63 68 73 78 75 76 69 73 70 72 54 49 52 35 26 36 34 31 35 33 26 28 27 25
44 39 45 40 40 41 40 36 34 33 37 40 42 45 56 54 47 49 56 58 58 57 56 61 59 85 77 72 74 70 68 76 61 51 33 33 37 39 36 32 32 23 28
Wind_Direction_500mb
183 210 238 252 245 271 185 134 122 72 343 65 64 305 240 349 341 342 336 338 338 350 339 325 290 256 256 276 279 279 276 281 287 294 301 303 300 293 293 297 297 295 293
185 201 202 225 222 232 190 153 188 262 313 195 209 293 278 236 302 294 304 320 338 347 13 354 335 313 295 290 291 291 298 309 313 316 318 317 312 309 308 307 303 300 296
211 206 208 205 200 196 209 223 257 277 290 119 222 289 38 152 258 281 299 298 324 336 357 33 4 342 327 320 321 334 351 348 338 333 328 326 319 315 315 313 313 310 304
239 226 211 206 191 203 228 235 260 276 179 192 217 240 255 202 250 284 301 297 306 322 333 349 360 354 335 337 341 4 2 355 347 341 339 335 334 332 333 330 324 321 313
246 249 223 208 209 227 227 242 243 230 214 208 245 243 246 231 260 272 257 255 289 301 315 322 339 347 349 344 341 351 360 359 352 347 341 341 339 336 335 336 331 328 331
245 246 242 216 209 220 224 221 235 239 228 228 206 216 224 249 310 273 252 260 292 269 304 302 320 343 9 7 1 341 359 351 349 349 344 340 339 333 330 330 332 335 334
250 247 251 228 212 220 224 228 231 233 241 221 222 204 229 267 291 288 269 260 264 262 284 285 291 324 299 334 352 341 332 336 339 345 345 340 335 330 327 332 338 337 333
242 248 254 237 216 223 226 230 234 235 236 234 227 217 224 244 256 266 260 252 257 247 270 277 275 296 312 295 302 304 313 320 326 334 337 335 331 328 329 339 340 334 334
244 252 249 237 227 227 228 230 237 241 237 221 220 215 207 225 212 243 226 236 235 245 247 267 261 279 297 305 310 291 295 306 318 325 330 331 325 326 335 336 336 337 334
256 252 252 245 244 232 229 231 237 244 238 219 214 224 230 236 212 223 213 221 237 238 249 254 248 256 272 281 300 309 287 296 309 316 324 322 319 328 334 339 339 342 337
250 239 245 250 242 229 230 234 237 236 236 226 226 225 231 241 246 247 244 234 246 246 257 252 248 243 246 260 276 290 304 295 298 308 315 316 320 329 337 343 347 345 340
264 275 271 244 238 232 229 233 241 240 237 232 229 229 234 232 237 233 246 253 256 257 265 255 236 241 253 263 266 267 281 291 301 305 310 310 320 328 345 351 352 347 346
262 259 270 271 264 254 239 233 236 244 236 236 231 233 237 240 242 246 253 262 268 268 275 255 240 242 236 249 265 264 266 276 297 300 299 309 320 338 352 358 353 351 354
251 271 261 264 265 271 244 232 234 241 245 241 243 243 241 244 242 241 246 256 268 270 263 275 253 248 231 249 258 262 257 273 290 290 290 306 325 348 359 360 356 354 359
258 258 266 266 259 259 264 245 234 238 243 247 247 251 252 248 246 246 248 253 260 266 265 275 261 251 242 251 253 254 263 281 274 271 276 304 338 357 3 3 0 359 3
269 259 256 264 262 248 257 253 240 242 245 247 251 254 254 254 252 251 247 245 248 254 262 270 283 276 239 240 246 257 271 279 266 254 260 312 342 1 7 11 7 4 360
289 272 262 245 247 248 246 246 248 244 253 250 253 259 259 262 263 258 255 245 244 249 254 261 278 252 222 230 246 257 271 279 253 242 259 307 339 0 10 16 13 5 1
329 297 264 255 250 249 256 256 254 257 249 251 254 257 259 258 262 264 255 249 239 244 253 251 249 229 228 239 258 268 273 261 253 250 273 297 328 350 8 17 16 10 0
320 328 312 269 258 248 241 248 266 268 267 271 266 268 269 266 257 259 249 239 232 238 242 240 235 239 233 237 258 270 258 245 251 257 249 278 313 336 351 8 9 8 2
307 313 324 307 266 244 238 262 267 258 264 268 263 264 265 256 254 248 250 243 230 231 231 236 234 235 247 255 267 265 246 231 233 234 233 264 293 309 332 355 357 1 3
306 292 304 304 297 276 262 260 260 254 259 254 263 264 268 252 248 243 242 242 243 237 240 238 244 240 240 245 262 273 248 238 225 234 235 256 281 287 309 338 344 350 0
303 300 291 285 299 308 306 292 279 259 256 252 257 264 274 264 248 240 240 241 243 245 240 240 242 242 241 247 252 271 257 235 226 229 239 255 262 274 286 313 329 338 343
286 296 296 303 318 314 312 303 294 277 265 259 255 255 260 256 249 250 250 245 246 245 246 245 244 240 231 245 239 245 260 245 235 225 224 236 259 251 262 291 309 321 330
274 279 285 297 294 308 298 289 295 298 296 289 285 280 266 257 255 254 265 264 256 252 248 257 246 244 248 242 239 243 258 241 228 238 244 240 262 251 251 272 296 308 312
295 278 277 278 276 277 283 290 287 288 297 301 298 288 283 282 270 265 264 262 260 251 251 257 246 242 242 243 232 241 257 222 225 228 260 250 229 239 243 258 277 288 299
293 285 279 274 274 276 281 290 289 290 291 282 300 301 289 290 283 272 266 263 261 256 255 254 249 239 242 239 243 237 240 235 243 234 243 253 233 229 227 246 261 270 300
Wind_Speed_850mb
25 27 25 17 7 7 2 12 9 5 12 7 3 5 11 19 20 14 15 19 28 32 21 13 7 6 7 11 13 14 15 17 19 22 21 21 21 22 23 26 26 26 25
35 32 26 21 13 5 11 17 16 13 13 5 3 8 11 12 10 20 20 20 25 30 24 19 12 9 8 10 9 9 11 12 13 15 17 19 21 22 23 24 25 25 25
31 35 29 33 34 20 19 20 20 17 4 11 7 7 4 7 17 18 26 19 18 22 25 22 21 15 12 10 7 6 6 9 13 17 18 20 21 22 21 22 24 26 27
27 32 38 32 23 28 26 27 21 15 6 6 8 14 9 14 14 18 15 11 17 22 24 22 21 27 14 9 5 5 9 15 17 18 19 20 20 20 19 19 21 24 28
38 32 39 38 34 29 24 24 18 14 17 17 13 17 21 19 18 19 19 16 22 33 26 19 23 28 14 11 9 10 14 18 21 22 23 24 23 22 22 23 25 28 32
40 36 36 44 45 35 38 26 26 23 20 20 14 8 26 20 23 19 18 21 29 18 18 22 16 21 10 14 15 14 17 21 23 26 27 28 27 25 27 28 31 34 36
45 41 36 41 52 50 50 38 37 34 29 21 22 14 20 17 20 20 23 21 18 21 22 17 14 17 10 9 12 14 19 26 23 32 33 32 29 29 30 32 36 39 42
51 48 40 39 47 44 43 45 39 42 34 30 30 25 20 26 31 26 26 28 16 22 24 22 20 21 21 17 21 17 20 24 26 37 36 35 34 33 34 36 39 43 47
54 59 53 39 49 53 52 47 52 46 38 33 29 26 17 20 21 16 25 25 27 26 29 30 30 33 27 23 23 28 27 24 33 35 38 37 33 33 35 37 41 45 47
58 67 63 54 44 53 53 54 51 47 44 42 38 33 33 26 14 13 24 27 27 33 26 33 34 35 30 28 25 23 23 27 33 38 41 37 31 32 33 38 43 46 50
50 48 61 66 60 59 54 57 51 48 46 51 45 43 40 32 38 42 30 32 28 36 33 29 42 34 29 29 28 24 24 26 33 39 40 32 31 30 31 38 44 49 53
40 45 40 46 58 56 63 62 64 56 53 51 54 49 50 46 42 35 37 35 31 28 32 44 32 41 43 41 30 26 24 26 30 37 36 27 25 26 32 38 47 51 49
38 41 44 42 45 57 62 68 63 60 56 54 56 60 60 52 44 35 33 33 33 31 30 37 35 28 33 34 40 33 29 30 38 36 25 20 21 24 31 40 47 50 44
36 31 43 48 45 41 52 67 69 66 62 58 59 59 57 60 54 49 40 39 35 31 21 27 35 34 40 39 35 34 37 39 39 31 20 15 17 23 32 40 47 48 38
53 48 42 41 44 41 39 51 75 74 67 66 66 65 66 63 58 58 52 43 32 34 36 20 32 41 40 37 37 39 40 39 29 22 15 13 16 23 31 38 47 45 36
47 46 49 41 43 46 45 40 48 57 66 71 70 70 68 69 62 61 60 47 40 35 36 29 17 27 43 36 40 41 37 31 22 18 13 12 16 21 29 38 45 41 36
34 41 41 40 43 46 45 44 51 49 59 65 66 64 62 62 62 58 58 60 45 39 40 40 25 27 34 40 44 41 36 27 21 16 9 10 13 19 26 37 43 38 32
27 26 37 42 41 41 42 41 43 46 54 58 53 47 47 55 59 55 53 50 52 45 46 40 23 29 37 36 38 43 40 31 25 19 10 13 14 18 23 30 44 38 21
25 27 23 34 40 43 30 26 33 42 44 48 46 45 47 41 49 47 50 43 43 45 42 41 34 27 36 40 31 44 37 29 25 20 11 12 19 17 23 27 40 44 26
21 22 20 21 31 39 38 41 41 41 44 41 41 39 38 40 40 46 46 42 49 44 45 43 34 36 37 40 31 35 36 29 20 17 11 15 22 16 21 24 32 40 35
24 22 21 17 17 27 39 39 45 50 46 38 46 42 45 46 50 44 49 49 48 55 48 50 51 47 46 43 42 31 37 28 24 22 19 22 25 21 19 23 26 32 37
37 30 17 20 17 16 22 24 34 42 40 42 45 46 46 34 44 50 51 51 53 51 55 51 52 53 47 44 28 32 37 32 31 32 29 28 26 25 21 22 23 29 30
40 38 30 18 14 15 17 22 21 20 28 43 49 42 40 37 38 46 53 61 62 59 54 58 67 64 49 46 40 40 39 41 39 32 28 29 29 26 24 22 23 29 27
41 40 37 29 20 20 21 22 23 28 29 29 31 39 54 61 61 58 61 63 64 71 68 66 70 73 71 69 55 59 57 66 46 37 33 29 31 33 27 23 24 30 26
35 41 40 34 33 29 32 29 30 37 39 38 40 41 40 46 58 61 61 63 68 73 78 75 76 69 73 70 72 54 49 52 35 26 36 34 31 35 33 26 28 27 25
44 39 45 40 40 41 40 36 34 33 37 40 42 45 56 54 47 49 56 58 58 57 56 61 59 85 77 72 74 70 68 76 61 51 33 33 37 39 36 32 32 23 28
Wind_Direction_850mb
183 210 238 252 245 271 185 134 122 72 343 65 64 305 240 349 341 342 336 338 338 350 339 325 290 256 256 276 279 279 276 281 287 294 301 303 300 293 293 297 297 295 293
185 201 202 225 222 232 190 153 188 262 313 195 209 293 278 236 302 294 304 320 338 347 13 354 335 313 295 290 291 291 298 309 313 316 318 317 312 309 308 307 303 300 296
211 206 208 205 200 196 209 223 257 277 290 119 222 289 38 152 258 281 299 298 324 336 357 33 4 342 327 320 321 334 351 348 338 333 328 326 319 315 315 313 313 310 304
239 226 211 206 191 203 228 235 260 276 179 192 217 240 255 202 250 284 301 297 306 322 333 349 360 354 335 337 341 4 2 355 347 341 339 335 334 332 333 330 324 321 313
246 249 223 208 209 227 227 242 243 230 214 208 245 243 246 231 260 272 257 255 289 301 315 322 339 347 349 344 341 351 360 359 352 347 341 341 339 336 335 336 331 328 331
245 246 242 216 209 220 224 221 235 239 228 228 206 216 224 249 310 273 252 260 292 269 304 302 320 343 9 7 1 341 359 351 349 349 344 340 339 333 330 330 332 335 334
250 247 251 228 212 220 224 228 231 233 241 221 222 204 229 267 291 288 269 260 264 262 284 285 291 324 299 334 352 341 332 336 339 345 345 340 335 330 327 332 338 337 333
242 248 254 237 216 223 226 230 234 235 236 234 227 217 224 244 256 266 260 252 257 247 270 277 275 296 312 295 302 304 313 320 326 334 337 335 331 328 329 339 340 334 334
244 252 249 237 227 227 228 230 237 241 237 221 220 215 207 225 212 243 226 236 235 245 247 267 261 279 297 305 310 291 295 306 318 325 330 331 325 326 335 336 336 337 334
256 252 252 245 244 232 229 231 237 244 238 219 214 224 230 236 212 223 213 221 237 238 249 254 248 256 272 281 300 309 287 296 309 316 324 322 319 328 334 339 339 342 337
250 239 245 250 242 229 230 234 237 236 236 226 226 225 231 241 246 247 244 234 246 246 257 252 248 243 246 260 276 290 304 295 298 308 315 316 320 329 337 343 347 345 340
264 275 271 244 238 232 229 233 241 240 237 232 229 229 234 232 237 233 246 253 256 257 265 255 236 241 253 263 266 267 281 291 301 305 310 310 320 328 345 351 352 347 346
262 259 270 271 264 254 239 233 236 244 236 236 231 233 237 240 242 246 253 262 268 268 275 255 240 242 236 249 265 264 266 276 297 300 299 309 320 338 352 358 353 351 354
251 271 261 264 265 271 244 232 234 241 245 241 243 243 241 244 242 241 246 256 268 270 263 275 253 248 231 249 258 262 257 273 290 290 290 306 325 348 359 360 356 354 359
258 258 266 266 259 259 264 245 234 238 243 247 247 251 252 248 246 246 248 253 260 266 265 275 261 251 242 251 253 254 263 281 274 271 276 304 338 357 3 3 0 359 3
269 259 256 264 262 248 257 253 240 242 245 247 251 254 254 254 252 251 247 245 248 254 262 270 283 276 239 240 246 257 271 279 266 254 260 312 342 1 7 11 7 4 360
289 272 262 245 247 248 246 246 248 244 253 250 253 259 259 262 263 258 255 245 244 249 254 261 278 252 222 230 246 257 271 279 253 242 259 307 339 0 10 16 13 5 1
329 297 264 255 250 249 256 256 254 257 249 251 254 257 259 258 262 264 255 249 239 244 253 251 249 229 228 239 258 268 273 261 253 250 273 297 328 350 8 17 16 10 0
320 328 312 269 258 248 241 248 266 268 267 271 266 268 269 266 257 259 249 239 232 238 242 240 235 239 233 237 258 270 258 245 251 257 249 278 313 336 351 8 9 8 2
307 313 324 307 266 244 238 262 267 258 264 268 263 264 265 256 254 248 250 243 230 231 231 236 234 235 247 255 267 265 246 231 233 234 233 264 293 309 332 355 357 1 3
306 292 304 304 297 276 262 260 260 254 259 254 263 264 268 252 248 243 242 242 243 237 240 238 244 240 240 245 262 273 248 238 225 234 235 256 281 287 309 338 344 350 0
303 300 291 285 299 308 306 292 279 259 256 252 257 264 274 264 248 240 240 241 243 245 240 240 242 242 241 247 252 271 257 235 226 229 239 255 262 274 286 313 329 338 343
286 296 296 303 318 314 312 303 294 277 265 259 255 255 260 256 249 250 250 245 246 245 246 245 244 240 231 245 239 245 260 245 235 225 224 236 259 251 262 291 309 321 330
274 279 285 297 294 308 298 289 295 298 296 289 285 280 266 257 255 254 265 264 256 252 248 257 246 244 248 242 239 243 258 241 228 238 244 240 262 251 251 272 296 308 312
295 278 277 278 276 277 283 290 287 288 297 301 298 288 283 282 270 265 264 262 260 251 251 257 246 242 242 243 232 241 257 222 225 228 260 250 229 239 243 258 277 288 299
293 285 279 274 274 276 281 290 289 290 291 282 300 301 289 290 283 272 266 263 261 256 255 254 249 239 242 239 243 237 240 235 243 234 243 253 233 229 227 246 261 270 300